Location: Kawakawa
(35.3830°S, 174.0670°E)
Time: 05:06:11
(UTC+13:00)

Meteor 1-27 - Pass Details

Date: 24 January 2019
Orbit: 839 x 891 km, 81.2° (Epoch: 19 February)

Event Time Altitude Azimuth Distance (km) Brightness Sun altitude
Rises 21:01:33 0° 354° (N) 3,456 7.2 -5.2°
Reaches altitude 10° 21:03:57 10° 354° (N) 2,533 6.5 -5.6°
Maximum altitude 21:09:45 88° 81° (E) 900 4.4 -6.7°
Drops below altitude 10° 21:15:40 10° 171° (S) 2,587 7.0 -7.7°
Sets 21:18:09 0° 171° (S) 3,535 7.7 -8.2°
